Location: Table Mountain
(47.2500°N, 120.5778°W)
Time: 12:11:30
(UTC-08:00)

Vanguard 1 Rocket - Visible Passes

Search period start: 18 February 2018 00:00
Search period end: 28 February 2018 00:00
Orbit: 655 x 4222 km, 34.3° (Epoch: 17 February)

Date Brightness Start Highest point End Pass type
(mag) Time Alt. Az. Time Alt. Az. Time Alt. Az.
18 Feb 10.4 02:41:52 58° SSW 02:42:21 58° S 03:01:57 10° ESE visible
18 Feb 10.5 04:59:08 26° W 05:11:23 40° SW 05:26:02 10° SSE visible
18 Feb 11.0 20:17:41 10° SSE 20:22:41 17° SSE 20:22:41 17° SSE visible
18 Feb 11.2 22:37:25 10° SW 23:17:10 16° E 23:20:23 10° E visible
19 Feb 10.6 01:34:26 50° SE 01:34:26 50° SE 01:49:50 10° ESE visible
19 Feb 10.5 03:51:42 43° WSW 03:58:26 50° SSW 04:15:46 10° SE visible
19 Feb 10.8 06:08:59 10° W 06:25:07 24° SW 06:36:43 10° S visible
19 Feb 10.9 21:27:07 10° SSW 22:09:46 - E 21:33:23 24° S visible
20 Feb 11.1 00:27:02 33° ESE 00:27:02 33° ESE 00:36:54 10° E visible
20 Feb 10.4 02:44:18 56° SSW 02:44:35 56° SSW 03:04:35 10° ESE visible
20 Feb 10.7 05:01:34 24° W 05:13:18 36° SW 05:28:06 10° SSE visible
20 Feb 10.8 20:18:19 10° S 20:26:46 23° SSE 20:26:46 23° SSE visible
20 Feb 11.1 22:39:33 10° SW 23:19:42 17° E 23:23:06 10° E visible
21 Feb 10.6 01:36:58 50° SE 01:36:58 50° SE 01:52:30 10° ESE visible
21 Feb 10.5 03:54:14 41° WSW 04:00:29 46° SSW 04:18:07 10° SE visible
21 Feb 11.0 06:12:35 10° W 06:26:47 20° SW 06:37:40 10° SSW visible
21 Feb 11.0 19:12:32 10° SSE 19:20:11 14° ESE 19:20:11 14° ESE visible
21 Feb 10.7 21:28:58 10° SSW 22:12:24 - E 21:37:31 31° S visible
21 Feb 11.1 23:53:39 10° WSW 00:29:41 33° ESE 00:39:33 10° ESE visible
22 Feb 10.5 02:46:57 54° SSW 02:46:57 54° SSW 03:07:05 10° SE visible
22 Feb 10.8 05:04:14 23° WSW 05:15:04 31° SW 05:29:52 10° S visible
22 Feb 10.6 20:19:37 10° S 20:30:56 29° SE 20:30:56 29° SE visible
22 Feb 10.9 22:41:55 10° SW 23:22:28 16° E 23:25:43 10° E visible
23 Feb 10.7 01:39:45 48° SE 01:39:45 48° SE 01:55:04 10° ESE visible
23 Feb 10.6 03:57:03 38° WSW 04:02:25 42° SSW 04:20:15 10° SSE visible
23 Feb 11.2 06:17:03 10° W 06:28:19 16° WSW 06:37:40 10° SSW visible
23 Feb 10.8 19:12:12 10° SSE 19:21:57 18° SE 19:24:20 18° ESE visible
23 Feb 10.5 21:31:07 10° SW 22:15:20 - E 21:41:41 38° S visible
23 Feb 11.1 23:56:16 10° WSW 00:32:38 32° ESE 00:42:07 10° ESE visible
24 Feb 10.5 02:49:56 50° SSW 02:49:56 50° SSW 03:09:24 10° SE visible
24 Feb 10.9 05:07:13 21° WSW 05:16:43 27° SW 05:31:10 10° S visible
24 Feb 10.5 20:21:22 10° SSW 20:35:04 34° SE 20:35:04 34° SE visible
24 Feb 10.7 22:44:27 10° WSW 23:25:35 15° E 23:28:16 10° E visible
25 Feb 10.7 01:42:53 45° SSE 01:42:53 45° SSE 01:57:30 10° ESE visible
25 Feb 10.7 04:00:11 36° SW 04:04:13 37° SW 04:22:04 10° SSE visible
25 Feb 11.3 06:23:45 10° WSW 06:29:47 12° WSW 06:35:18 10° SW visible
25 Feb 10.7 19:13:03 10° S 19:23:37 23° SE 19:28:24 21° ESE visible
25 Feb 10.3 21:33:29 10° SW 22:18:37 - E 21:45:45 45° S visible
25 Feb 11.1 23:58:58 10° WSW 00:35:56 29° ESE 00:44:36 10° ESE visible
26 Feb 10.6 02:53:15 46° SSW 02:53:15 46° SSW 03:11:31 10° SE visible
26 Feb 11.1 05:10:33 19° WSW 05:18:18 22° SW 05:31:52 10° S visible
26 Feb 10.9 18:08:45 10° SE 18:12:52 11° ESE 18:17:32 10° ESE visible
26 Feb 10.3 20:23:26 10° SSW 20:37:07 38° SE 20:39:02 38° SE visible
26 Feb 10.6 22:47:07 10° WSW 23:29:03 13° ESE 23:30:44 10° ESE visible
27 Feb 10.8 01:46:23 41° SSE 01:46:23 41° SSE 01:59:47 10° SE visible
27 Feb 10.8 04:03:42 32° SW 04:05:57 32° SW 04:23:32 10° SSE visible
27 Feb 10.5 19:14:33 10° S 19:25:25 27° SE 19:32:16 22° ESE visible
27 Feb 10.2 21:36:02 10° SW 21:49:35 50° S 21:49:35 50° S visible
